Location: Unspecified
(0.0000°N, 0.0000°E)
Time: 14:32:51
(UTC+00:00)

Tiangong - Visible Passes

Search period start: 21 September 2023 00:00
Search period end: 01 October 2023 00:00
Orbit: 374 x 385 km, 41.5° (Epoch: 21 September)

Date Brightness Start Highest point End Pass type
(mag) Time Alt. Az. Time Alt. Az. Time Alt. Az.
21 Sep -2.3 19:00:56 10° SW 19:04:03 70° SE 19:04:18 65° E visible
22 Sep 0.8 19:37:40 10° W 19:39:12 14° NW 19:39:12 14° NW visible
23 Sep -0.8 18:35:18 10° WSW 18:38:15 38° NW 18:41:11 10° NNE visible
25 Sep -0.6 05:03:26 10° NNW 05:06:17 33° NE 05:09:10 10° ESE visible
26 Sep 0.9 04:05:07 13° NE 04:05:07 13° NE 04:06:27 10° ENE visible
27 Sep -2.3 04:39:48 64° WNW 04:40:12 83° SW 04:43:20 10° SE visible
28 Sep 0.1 05:14:23 10° WSW 05:15:25 11° SW 05:16:28 10° SSW visible
29 Sep 0.8 04:16:34 11° SSE 04:16:34 11° SSE 04:16:44 10° SSE visible
